STARLINK-2575 (48396 NORAD) Tracking and Keplerian Element Data

This shows tracking and keplerian element data for the satellite.

Feedback or suggestion? Click here.




ElementValue
Catalog48396
NameSTARLINK-2575
Epoch Orbit1475
Epoch Day215.25002315
Epoch Year2021
RAAN320.9068
Inclination53.0524
Eccentricity0.000143
Argument of Perigee74.5142
Mean Anonmoly267.9623
Mean Motion15.06413888
Decay Rate-0.0003251
L11 48396U 21038AV 21215.25002315 -.00032510 00000-0 -21728-2 0 9998
L22 48396 53.0524 320.9068 0001430 74.5142 267.9623 15.06413888 14756

Live tracking and technical data element details for STARLINK-2575 (NORAD 48396). STARLINK-2575 can be tracked NOW for your location showing map with azimuth and elevation plus other details from your city location.

Track the satellite on the map from your city or location and see movement details for azimuth, elevation, latitude, longitude, range, height, and movement on the map or in text.







IsCatalogInMostPopularTable: catalog: 48396, numindb: 27
Update: records affected: 1



GetName: 48396 STARLINK-2575

Hit Count: updated at: Wed, 04 Aug 2021 00:50:46 GMT